Location: Bannatyne
(13.0833°N, 59.5333°W)
Time: 17:08:21
(UTC+00:00)

Vanguard 3 - Pass Details

Date: 28 January 2020
Orbit: 508 x 3263 km, 33.3° (Epoch: 22 February)

Event Time Altitude Azimuth Distance (km) Brightness Sun altitude
Rises 20:33:19 0° 265° (W) 6,329 13.0 18.2°
Reaches altitude 10° 20:37:24 10° 271° (W) 5,598 12.8 17.3°
Maximum altitude 20:54:55 48° 341° (NNW) 3,899 10.8 13.4°
Drops below altitude 10° 21:13:02 10° 52° (NE) 5,729 10.9 9.3°
Sets 21:17:21 0° 58° (ENE) 6,476 11.1 8.3°
